Flag for Germany Weather past 2 weeks in Bad Hersfeld, Hesse, Germany

Now
61 °F

Cool.


Feels Like: 61 °F
Forecast: 50 / 87 °F
Wind: 2 mph from Northwest

Location: Fritzlar Airport

Current Time: Jul 7, 2015 at 12:19:56 AM

Latest Report: Jul 6, 2015 at 11:20 PM


Visibility: N/A

Pressure: 30.09 "Hg

Humidity: 83%

Dew point: 55 °F

Location of Bad HersfeldLocation

Historic Weather in Bad Hersfeld — Graph

°F

Bad Hersfeld temperature yesterday

Maximum temperature yesterday: 79 °F (at 4:20 PM)
Minimum temperature yesterday: 59 °F (at 5:20 AM)
Average temperature yesterday: 70 °F

Past Weeks' High & Low Weather Summary

 TemperatureHumidityPressure
High97 °F (Jul 4, 2:20 PM)100% (Jun 22, 2:20 AM)30.27 "Hg (Jun 22, 2:20 AM)
Low45 °F (Jun 25, 3:20 AM)28% (Jul 4, 3:20 PM)29.65 "Hg (Jun 22, 11:20 PM)
Average67 °F68%30.08 "Hg
* Reported Jun 21 10:20 PM — Jul 6 10:20 PM, Bad Hersfeld, Weather by CustomWeather, © 2015

Note: Actual official high and low records may vary slightly from our data, if they occured in-between our weather recording intervals... More about our weather records

Advertising

Bad Hersfeld weather history for previous 24 hours

 ConditionsComfort  
Time TempWeatherWind HumidityBarometerVisibility
10:20 PM
Mon, Jul 6
63 °FMild.2 mph77%30.09 "HgN/A
9:20 PM73 °FMild.5 mph44%30.09 "HgN/A
8:20 PM77 °FPleasantly warm.6 mph36%30.09 "HgN/A
7:20 PM79 °FPleasantly warm.5 mph32%30.09 "HgN/A
6:20 PM79 °FPassing clouds.5 mph32%30.09 "HgN/A
5:20 PM79 °FPassing clouds.7 mph30%30.12 "HgN/A
4:59 PM79 °FPassing clouds.7 mph30%30.12 "HgN/A
4:20 PM79 °FPassing clouds.6 mph32%30.12 "HgN/A
3:20 PM77 °FPassing clouds.6 mph34%30.15 "HgN/A
2:20 PM75 °FPassing clouds.9 mph36%30.15 "HgN/A
1:20 PM73 °FPassing clouds.7 mph44%30.15 "HgN/A
12:20 PM72 °FPassing clouds.9 mph47%30.15 "HgN/A
11:20 AM70 °FPassing clouds.9 mph50%30.18 "HgN/A
10:20 AM70 °FPassing clouds.8 mph60%30.18 "HgN/A
9:20 AM66 °FPassing clouds.10 mph73%30.18 "HgN/A
8:20 AM64 °FScattered clouds.7 mph83%30.15 "HgN/A
7:20 AM63 °FPassing clouds.1 mph88%30.15 "HgN/A
6:20 AM59 °FFog.2 mph94%30.12 "HgN/A
5:20 AM59 °FPassing clouds.3 mph94%30.12 "HgN/A
4:20 AM61 °FPassing clouds.3 mph94%30.09 "HgN/A
3:20 AM63 °FPassing clouds.3 mph94%30.09 "HgN/A
2:20 AM63 °FPassing clouds.6 mph94%30.09 "HgN/A
1:20 AM63 °FRain showers. Passing clouds.6 mph94%30.07 "Hg5 mi
12:20 AM66 °FThunderstorms. Partly cloudy.8 mph83%30.04 "HgN/A
Weather by CustomWeather, © 2015

See weather overviewHow to use our weather pages